Tracking 25710 objects as of 7-Jul-2022
HD Live streaming from Space Station
objects crossing your sky now

STARLINK-3576

Track STARLINK-3576 now!
10-day predictions
STARLINK-3576 is classified as:


NORAD ID: 51883
Int'l Code: 2022-022AH
Perigee: 545.7 km
Apogee: 548.3 km
Inclination: 53.2 °
Period: 95.4 minutes
Semi major axis: 6917 km
RCS: Unknown
Launch date: March 3, 2022
Source: United States (US)
Launch site: AIR FORCE EASTERN TEST RANGE (AFETR)
aabbcc
Your satellite tracking list
Your tracking list is empty




NASA's NSSDC Master Catalog

Two Line Element Set (TLE):
1 51883U 22022AH  22187.66667824  .00046480  00000-0  29223-2 0  9990
2 51883  53.2161 263.7016 0001921  49.0826 254.5766 15.08802759 20644
Source of the keplerian elements: AFSPC